Location: Saluda
(35.2377°N, 82.3468°W)
Time: 05:06:52
(UTC+00:00)

Vanguard 2 - Pass Details

Date: 11 October 2022
Orbit: 553 x 2933 km, 32.9° (Epoch: 26 November)

Event Time Altitude Azimuth Distance (km) Brightness Sun altitude
Rises 21:15:13 0° 281° (W) 5,130 12.6 19.5°
Reaches altitude 10° 21:18:17 10° 276° (W) 4,418 12.6 19.0°
Maximum altitude 21:30:40 50° 206° (SSW) 3,112 11.4 16.6°
Drops below altitude 10° 21:47:12 10° 138° (SE) 5,755 11.8 13.5°
Sets 21:51:55 0° 134° (SE) 6,742 12.1 12.6°
